Home   Weather   Milan   Past weeks

Flag for Italy Past Weather in Milan, Italy — Yesterday and Last 2 Weeks

Now
57 °F

Passing clouds.


Feels Like: 55 °F
Forecast: 40 / 52 °F
Wind: 9 mph from West

Location: Milan / Linate

Current Time: Feb 21, 2017 at 5:47:39 pm

Latest Report: Feb 21, 2017 at 4:50 pm


Visibility: N/A

Pressure: 30.01 "Hg

Humidity: 63%

Dew Point: 45 °F

Location of MilanLocation

Past Weather in Milan — Graph

°F

Milan Temperature Yesterday

Maximum temperature yesterday: 48 °F (at 3:50 pm)
Minimum temperature yesterday: 37 °F (at 12:20 am)
Average temperature yesterday: 40 °F

High & Low Weather Summary for the Past Weeks

 TemperatureHumidityPressure
High59 °F (Feb 16, 2:20 pm)100% (Feb 6, 6:20 pm)30.60 "Hg (Feb 6, 6:20 pm)
Low34 °F (Feb 15, 4:20 am)39% (Feb 16, 3:20 pm)29.68 "Hg (Feb 6, 4:20 pm)
Average44 °F86%30.25 "Hg
* Reported Feb 6 4:20 pm — Feb 21 4:20 pm, Milan, Weather by CustomWeather, © 2017

Note: Actual official high and low records may vary slightly from our data, if they occured in-between our weather recording intervals... More about our weather records

Advertising

Milan Weather History for the Previous 24 Hours

Scroll right to see more
 ConditionsComfort  
Time TempWeatherWind HumidityBarometerVisibility
4:20 pm
Tue, Feb 21
59 °FPassing clouds.12 mph55%30.01 "HgN/A
3:50 pm59 °FPassing clouds.8 mph55%30.01 "HgN/A
3:20 pm57 °FPassing clouds.10 mph59%30.01 "HgN/A
2:50 pm57 °FPassing clouds.9 mph59%30.01 "HgN/A
2:20 pm57 °FPassing clouds.8 mph59%30.04 "HgN/A
1:50 pm55 °FPassing clouds.7 mph63%30.07 "HgN/A
1:20 pm54 °FClear.7 mph63%30.07 "Hg4 mi
12:50 pm52 °FClear.6 mph62%30.07 "Hg4 mi
12:20 pm50 °FFog.5 mph71%30.09 "Hg3 mi
11:50 am46 °FFog.3 mph82%30.09 "Hg3 mi
11:20 am45 °FFog.5 mph87%30.09 "Hg3 mi
10:50 am43 °FFog.6 mph93%30.09 "Hg2 mi
10:20 am43 °FFog.5 mph87%30.12 "Hg2 mi
9:50 am41 °FFog.6 mph93%30.12 "Hg2 mi
9:20 am41 °FFog.3 mph93%30.12 "Hg1 mi
8:50 am39 °FPartly sunny.2 mph100%30.12 "Hg1 mi
8:20 am37 °FFog.3 mph100%30.12 "Hg1 mi
7:50 am37 °FFog.3 mph100%30.12 "Hg1 mi
7:20 am37 °FPartly sunny.5 mph100%30.12 "Hg1 mi
6:50 am37 °FPartly cloudy.1 mph100%30.12 "Hg1 mi
6:20 am37 °FFog.2 mph100%30.12 "Hg2 mi
5:50 am37 °FFog.3 mph100%30.12 "Hg2 mi
5:20 am39 °FFog.2 mph93%30.12 "Hg2 mi
4:50 am37 °FFog.2 mph100%30.12 "Hg2 mi
4:20 am37 °FFog.2 mph100%30.15 "Hg2 mi
3:50 am37 °FPassing clouds.No wind100%30.15 "Hg1 mi
3:20 am37 °FPassing clouds.2 mph100%30.15 "Hg1 mi
2:50 am37 °FPassing clouds.3 mph100%30.15 "Hg1 mi
2:20 am37 °FFog.3 mph100%30.18 "Hg1 mi
1:50 am37 °FFog.3 mph100%30.18 "Hg0 mi
1:20 am37 °FFog.5 mph100%30.18 "Hg0 mi
12:50 am39 °FFog.5 mph100%30.18 "Hg0 mi
12:20 am39 °FFog.2 mph100%30.18 "Hg0 mi
11:50 pm
Mon, Feb 20
39 °FFog.3 mph100%30.18 "Hg0 mi
11:20 pm39 °FFog.5 mph100%30.21 "Hg0 mi
10:50 pm39 °FFog.2 mph100%30.21 "Hg0 mi
10:20 pm39 °FFog.3 mph100%30.21 "Hg0 mi
9:50 pm39 °FFog.3 mph100%30.21 "Hg0 mi
9:20 pm39 °FFog.5 mph100%30.21 "Hg1 mi
8:50 pm39 °FPassing clouds.5 mph100%30.21 "Hg1 mi
8:20 pm39 °FFog.5 mph100%30.21 "Hg2 mi
7:50 pm41 °FFog.3 mph93%30.21 "Hg2 mi
7:20 pm41 °FFog.2 mph93%30.21 "Hg2 mi
6:50 pm43 °FFog.5 mph93%30.18 "Hg2 mi
6:20 pm43 °FFog.6 mph93%30.18 "Hg2 mi
5:50 pm46 °FFog.5 mph82%30.18 "Hg2 mi
5:20 pm46 °FFog.5 mph82%30.18 "Hg2 mi
Weather by CustomWeather, © 2017

See weather overviewHow to use our weather pages